Date String (YYYY-MM-DD hh:mm:ss) UTC,Instrument flags,Ambient pressure (hPa),Sample flow (lpm),Bypass flow (lpm),Sample temperature (°C),Ambient temperature (°C),ASC tube jacket temperature (°C),LED temperature (°C),Box temperature (°C),Sample RH (%),Span deviation,Mass concentration (μg/m³),Mass concentration (μg/m³),Mass concentration (μg/m³)
DateTimeUTC,F1_M11,P_M11,Q1_M11,Q2_M11,T1_M11,T2_M11,T3_M11,T4_M11,T5_M11,U1_M11,ZSPAN_M11,X0_M11,X2_M11,X1_M11
2022-05-17 04:00:00,,0822.1,4.99,0.00,29.3,28.3,00.0,38.3,31.2,14.1,0000.0,0009.75,0003.94,0002.89
2022-05-17 04:01:00,,0822.1,5.00,0.00,29.4,28.4,00.0,38.3,31.2,14.1,0000.0,0009.37,0003.91,0002.88
2022-05-17 04:02:00,,0822.1,4.99,0.00,29.4,28.4,00.0,38.3,31.2,14.0,0000.0,0009.37,0003.92,0002.86
2022-05-17 04:03:00,,0822.1,4.99,0.00,29.4,28.4,00.0,38.3,31.3,14.0,0000.0,0009.98,0003.95,0002.85
2022-05-17 04:04:00,,0822.1,5.00,0.00,29.4,28.4,00.0,38.3,31.3,14.0,0000.0,0010.08,0003.92,0002.81
2022-05-17 04:05:00,,0822.2,5.00,0.00,29.5,28.5,00.0,38.4,31.3,14.0,0000.0,0010.51,0003.93,0002.80
2022-05-17 04:06:00,,0822.2,5.01,0.00,29.5,28.2,00.0,38.4,31.3,13.9,0000.0,0010.84,0003.91,0002.80
2022-05-17 04:07:00,,0822.1,5.01,0.00,29.4,25.9,00.0,38.3,30.9,13.9,0000.0,0011.09,0003.89,0002.79
2022-05-17 04:08:00,,0822.1,4.99,0.00,29.3,25.0,00.0,38.3,30.7,14.0,0000.0,0011.15,0003.90,0002.79
2022-05-17 04:09:00,,0822.1,4.99,0.00,29.2,25.2,00.0,38.3,30.6,14.0,0000.0,0011.21,0003.92,0002.79
2022-05-17 04:10:00,,0822.2,5.01,0.00,29.1,25.6,00.0,38.2,30.6,14.1,0000.0,0010.73,0003.94,0002.78
2022-05-17 04:11:00,,0822.2,4.99,0.00,29.1,26.0,00.0,38.2,30.6,14.1,0000.0,0010.74,0003.94,0002.77
2022-05-17 04:12:00,,0822.2,5.00,0.00,29.0,26.4,00.0,38.2,30.6,14.1,0000.0,0010.67,0003.93,0002.76
2022-05-17 04:13:00,,0822.2,4.99,0.00,29.0,26.7,00.0,38.2,30.7,14.1,0000.0,0010.68,0003.93,0002.75
2022-05-17 04:14:00,,0822.1,4.99,0.00,29.0,27.0,00.0,38.2,30.7,14.1,0000.0,0009.80,0003.89,0002.74
2022-05-17 04:15:00,,0822.1,5.00,0.00,29.0,27.2,00.0,38.2,30.8,14.0,0000.0,0010.34,0003.89,0002.72
2022-05-17 04:16:00,,0822.1,4.99,0.00,29.1,27.4,00.0,38.1,30.8,14.0,0000.0,0009.90,0003.86,0002.72
2022-05-17 04:17:00,,0822.2,5.01,0.00,29.1,27.5,00.0,38.1,30.8,14.0,0000.0,0009.18,0003.85,0002.72
2022-05-17 04:18:00,,0822.2,5.00,0.00,29.1,27.7,00.0,38.1,30.8,14.0,0000.0,0008.92,0003.90,0002.71
2022-05-17 04:19:00,,0822.2,5.00,0.00,29.1,27.8,00.0,38.1,30.9,13.9,0000.0,0009.00,0003.95,0002.72
2022-05-17 04:20:00,,0822.1,5.00,0.00,29.1,27.9,00.0,38.1,30.9,13.9,0000.0,0009.07,0003.94,0002.72
2022-05-17 04:21:00,,0822.2,5.00,0.00,29.1,27.9,00.0,38.1,30.9,13.8,0000.0,0009.01,0003.91,0002.71
2022-05-17 04:22:00,,0822.1,5.00,0.00,29.2,28.0,00.0,38.2,30.9,13.8,0000.0,0009.04,0003.93,0002.70
2022-05-17 04:23:00,,0822.1,5.00,0.00,29.2,28.0,00.0,38.2,31.0,13.8,0000.0,0009.02,0003.92,0002.69
2022-05-17 04:24:00,,0822.1,5.01,0.00,29.2,28.1,00.0,38.2,31.0,13.8,0000.0,0008.93,0003.87,0002.68
2022-05-17 04:25:00,,0822.1,5.00,0.00,29.2,28.1,00.0,38.2,31.0,13.7,0000.0,0008.89,0003.84,0002.67
2022-05-17 04:26:00,,0822.1,5.00,0.00,29.3,28.1,00.0,38.2,31.1,13.8,0000.0,0008.46,0003.81,0002.66
2022-05-17 04:27:00,,0822.1,4.99,0.00,29.3,28.2,00.0,38.2,31.1,13.7,0000.0,0008.25,0003.81,0002.66
2022-05-17 04:28:00,,0822.1,5.00,0.00,29.3,28.2,00.0,38.2,31.1,13.7,0000.0,0008.27,0003.79,0002.65
2022-05-17 04:29:00,,0822.1,5.01,0.00,29.3,28.2,00.0,38.2,31.1,13.7,0000.0,0008.19,0003.77,0002.65
2022-05-17 04:30:00,,0822.1,4.99,0.00,29.3,28.2,00.0,38.3,31.1,13.6,0000.0,0007.95,0003.70,0002.64
2022-05-17 04:31:00,,0822.1,5.00,0.00,29.3,28.3,00.0,38.3,31.1,13.6,0000.0,0008.11,0003.70,0002.64
2022-05-17 04:32:00,,0822.1,5.01,0.00,29.4,28.3,00.0,38.3,31.1,13.6,0000.0,0008.10,0003.71,0002.65
2022-05-17 04:33:00,,0822.2,5.00,0.00,29.4,28.3,00.0,38.3,31.1,13.5,0000.0,0008.02,0003.68,0002.65
2022-05-17 04:34:00,,0822.2,5.00,0.00,29.4,28.3,00.0,38.3,31.2,13.4,0000.0,0007.96,0003.67,0002.66
2022-05-17 04:35:00,,0822.1,5.00,0.00,29.4,28.4,00.0,38.3,31.2,13.4,0000.0,0008.32,0003.70,0002.68
2022-05-17 04:36:00,,0822.1,4.99,0.00,29.4,28.4,00.0,38.4,31.2,13.4,0000.0,0008.61,0003.69,0002.68
2022-05-17 04:37:00,,0822.1,5.01,0.00,29.5,28.4,00.0,38.4,31.3,13.3,0000.0,0009.43,0003.68,0002.69
2022-05-17 04:38:00,,0822.1,5.00,0.00,29.5,28.4,00.0,38.4,31.3,13.2,0000.0,0009.98,0003.70,0002.69
2022-05-17 04:39:00,,0822.1,4.99,0.00,29.5,28.4,00.0,38.4,31.3,13.1,0000.0,0009.91,0003.73,0002.69
2022-05-17 04:40:00,,0822.1,5.00,0.00,29.5,28.5,00.0,38.4,31.4,12.9,0000.0,0010.32,0003.79,0002.68
2022-05-17 04:41:00,,0822.1,5.00,0.00,29.5,28.5,00.0,38.5,31.3,12.9,0000.0,0010.94,0003.78,0002.68
2022-05-17 04:42:00,,0822.1,4.99,0.00,29.6,28.5,00.0,38.5,31.3,12.9,0000.0,0010.87,0003.76,0002.66
2022-05-17 04:43:00,,0822.1,5.01,0.00,29.6,28.5,00.0,38.5,31.4,12.9,0000.0,0010.75,0003.75,0002.64
2022-05-17 04:44:00,,0822.1,5.01,0.00,29.6,28.5,00.0,38.5,31.3,12.9,0000.0,0010.76,0003.75,0002.65
2022-05-17 04:45:00,,0822.0,5.01,0.00,29.6,28.6,00.0,38.5,31.4,12.9,0000.0,0011.45,0003.73,0002.65
2022-05-17 04:46:00,,0822.0,5.00,0.00,29.6,28.3,00.0,38.5,31.4,12.8,0000.0,0011.57,0003.73,0002.64
2022-05-17 04:47:00,,0822.0,5.00,0.00,29.6,26.0,00.0,38.5,31.0,12.8,0000.0,0011.58,0003.78,0002.64
2022-05-17 04:48:00,,0821.9,4.99,0.00,29.4,25.0,00.0,38.4,30.8,12.9,0000.0,0010.86,0003.79,0002.63
2022-05-17 04:49:00,,0821.9,5.01,0.00,29.3,25.2,00.0,38.4,30.7,12.9,0000.0,0010.05,0003.82,0002.63
2022-05-17 04:50:00,,0821.8,4.98,0.00,29.2,25.6,00.0,38.4,30.6,13.0,0000.0,0010.00,0003.80,0002.62
2022-05-17 04:51:00,,0822.1,5.01,0.00,29.1,26.1,00.0,38.3,30.7,13.1,0000.0,0009.72,0003.77,0002.62
2022-05-17 04:52:00,,0821.9,4.99,0.00,29.1,26.5,00.0,38.3,30.7,13.1,0000.0,0009.20,0003.82,0002.64
2022-05-17 04:53:00,,0822.0,5.00,0.00,29.1,26.8,00.0,38.3,30.8,13.1,0000.0,0009.29,0003.89,0002.66
2022-05-17 04:54:00,,0821.8,4.99,0.00,29.1,27.1,00.0,38.3,30.8,13.0,0000.0,0009.55,0003.92,0002.67
2022-05-17 04:55:00,,0821.7,4.99,0.00,29.1,27.3,00.0,38.3,30.8,13.1,0000.0,0010.03,0003.94,0002.65
2022-05-17 04:56:00,,0821.8,5.00,0.00,29.1,27.5,00.0,38.3,30.9,13.1,0000.0,0009.86,0003.95,0002.64
2022-05-17 04:57:00,,0821.8,5.00,0.00,29.2,27.6,00.0,38.3,31.0,13.0,0000.0,0009.44,0003.93,0002.63
2022-05-17 04:58:00,,0821.8,5.00,0.00,29.2,27.8,00.0,38.3,31.0,13.0,0000.0,0009.56,0003.90,0002.62
2022-05-17 04:59:00,,0821.8,4.99,0.00,29.2,27.9,00.0,38.3,31.0,13.0,0000.0,0009.95,0003.96,0002.63
